owner,sensor,date,latitude,longitude,vertical_datum,mass_concentration_of_oxygen_in_sea_water,qcFlag 
DISL,ioos:station:DISL:DISL:1,2011-07-01T00:00:00Z,30.2513,-88.0778,5.782,7.19,1111122 
DISL,ioos:station:DISL:DISL:1,2011-07-01T00:30:00Z,30.2513,-88.0778,5.725,6.91,1111122 
DISL,ioos:station:DISL:DISL:1,2011-07-01T01:00:00Z,30.2513,-88.0778,5.687,6.77,1111122 
DISL,ioos:station:DISL:DISL:1,2011-07-01T01:30:00Z,30.2513,-88.0778,5.644,6.79,1111122 
DISL,ioos:station:DISL:DISL:1,2011-07-01T02:00:00Z,30.2513,-88.0778,5.61,6.58,1111122 
DISL,ioos:station:DISL:DISL:1,2011-07-01T02:30:00Z,30.2513,-88.0778,5.617,6.54,1111122 
DISL,ioos:station:DISL:DISL:1,2011-07-01T03:00:00Z,30.2513,-88.0778,5.621,6.07,1111122 
DISL,ioos:station:DISL:DISL:1,2011-07-01T03:30:00Z,30.2513,-88.0778,5.566,5.97,1111122 
DISL,ioos:station:DISL:DISL:1,2011-07-01T04:00:00Z,30.2513,-88.0778,5.606,5.58,1111122 
DISL,ioos:station:DISL:DISL:1,2011-07-01T04:30:00Z,30.2513,-88.0778,5.644,5.45,1111122 
DISL,ioos:station:DISL:DISL:1,2011-07-01T05:00:00Z,30.2513,-88.0778,5.716,5.04,1111122 
DISL,ioos:station:DISL:DISL:1,2011-07-01T05:30:00Z,30.2513,-88.0778,5.711,5.85,1111122 
DISL,ioos:station:DISL:DISL:1,2011-07-01T06:00:00Z,30.2513,-88.0778,5.884,5.59,1111122 
DISL,ioos:station:DISL:DISL:1,2011-07-01T06:30:00Z,30.2513,-88.0778,5.89,5.17,1111122 
DISL,ioos:station:DISL:DISL:1,2011-07-01T07:00:00Z,30.2513,-88.0778,5.966,5.15,1111122 
DISL,ioos:station:DISL:DISL:1,2011-07-01T07:30:00Z,30.2513,-88.0778,5.97,5.73,1111122 
DISL,ioos:station:DISL:DISL:1,2011-07-01T08:00:00Z,30.2513,-88.0778,5.948,5.15,1111122 
DISL,ioos:station:DISL:DISL:1,2011-07-01T08:30:00Z,30.2513,-88.0778,6.086,5.17,1111122 
DISL,ioos:station:DISL:DISL:1,2011-07-01T09:00:00Z,30.2513,-88.0778,6.263,4.94,1111122 
DISL,ioos:station:DISL:DISL:1,2011-07-01T09:30:00Z,30.2513,-88.0778,6.333,5.07,1111122 
DISL,ioos:station:DISL:DISL:1,2011-07-01T10:00:00Z,30.2513,-88.0778,6.336,5.11,1111122 
DISL,ioos:station:DISL:DISL:1,2011-07-01T10:30:00Z,30.2513,-88.0778,6.419,5.2,1111122 
DISL,ioos:station:DISL:DISL:1,2011-07-01T11:00:00Z,30.2513,-88.0778,6.581,5.07,1111122 
DISL,ioos:station:DISL:DISL:1,2011-07-01T11:30:00Z,30.2513,-88.0778,6.606,4.59,1111122 
DISL,ioos:station:DISL:DISL:1,2011-07-01T12:00:00Z,30.2513,-88.0778,6.846,4.86,1111122 
DISL,ioos:station:DISL:DISL:1,2011-07-01T12:30:00Z,30.2513,-88.0778,6.962,4.94,1111122 
DISL,ioos:station:DISL:DISL:1,2011-07-01T13:00:00Z,30.2513,-88.0778,6.944,4.9,1111122 
DISL,ioos:station:DISL:DISL:1,2011-07-01T13:30:00Z,30.2513,-88.0778,7.08,4.6,1111122 
DISL,ioos:station:DISL:DISL:1,2011-07-01T14:00:00Z,30.2513,-88.0778,7.18,4.89,1111122 
DISL,ioos:station:DISL:DISL:1,2011-07-01T14:30:00Z,30.2513,-88.0778,7.27,5.3,1111122 
DISL,ioos:station:DISL:DISL:1,2011-07-01T15:00:00Z,30.2513,-88.0778,7.29,5.23,1111122 
DISL,ioos:station:DISL:DISL:1,2011-07-01T15:30:00Z,30.2513,-88.0778,7.26,5.49,1111122 
DISL,ioos:station:DISL:DISL:1,2011-07-01T16:00:00Z,30.2513,-88.0778,7.29,5.53,1111122 
DISL,ioos:station:DISL:DISL:1,2011-07-01T16:30:00Z,30.2513,-88.0778,7.29,5.6,1111122 
DISL,ioos:station:DISL:DISL:1,2011-07-01T17:00:00Z,30.2513,-88.0778,7.25,5.79,1111122 
DISL,ioos:station:DISL:DISL:1,2011-07-01T17:30:00Z,30.2513,-88.0778,7.13,6.08,1111122 
DISL,ioos:station:DISL:DISL:1,2011-07-01T18:00:00Z,30.2513,-88.0778,7.18,6.02,1111122 
DISL,ioos:station:DISL:DISL:1,2011-07-01T18:30:00Z,30.2513,-88.0778,7.09,6.28,1111122 
DISL,ioos:station:DISL:DISL:1,2011-07-01T19:00:00Z,30.2513,-88.0778,6.946,6.6,1111122 
DISL,ioos:station:DISL:DISL:1,2011-07-01T19:30:00Z,30.2513,-88.0778,6.823,6.84,1111122 
DISL,ioos:station:DISL:DISL:1,2011-07-01T20:00:00Z,30.2513,-88.0778,6.759,6.81,1111122 
DISL,ioos:station:DISL:DISL:1,2011-07-01T20:30:00Z,30.2513,-88.0778,6.61,6.73,1111122 
DISL,ioos:station:DISL:DISL:1,2011-07-01T21:00:00Z,30.2513,-88.0778,6.395,6.77,1111122 
DISL,ioos:station:DISL:DISL:1,2011-07-01T21:30:00Z,30.2513,-88.0778,6.249,7.13,1111122 
DISL,ioos:station:DISL:DISL:1,2011-07-01T22:00:00Z,30.2513,-88.0778,6.155,6.26,1111122 
DISL,ioos:station:DISL:DISL:1,2011-07-01T22:30:00Z,30.2513,-88.0778,6.019,7.61,1111122 
DISL,ioos:station:DISL:DISL:1,2011-07-01T23:00:00Z,30.2513,-88.0778,5.973,8.03,1111122 
DISL,ioos:station:DISL:DISL:1,2011-07-01T23:30:00Z,30.2513,-88.0778,5.94,7.65,1111122 
DISL,ioos:station:DISL:DISL:1,2011-07-02T00:00:00Z,30.2513,-88.0778,5.933,6.63,1111122 
DISL,ioos:station:DISL:DISL:1,2011-07-02T00:30:00Z,30.2513,-88.0778,5.898,6.16,1111122 
DISL,ioos:station:DISL:DISL:1,2011-07-02T01:00:00Z,30.2513,-88.0778,5.759,6.21,1111122 
DISL,ioos:station:DISL:DISL:1,2011-07-02T01:30:00Z,30.2513,-88.0778,5.749,6.03,1111122 
DISL,ioos:station:DISL:DISL:1,2011-07-02T02:00:00Z,30.2513,-88.0778,5.663,6.18,1111122 
DISL,ioos:station:DISL:DISL:1,2011-07-02T02:30:00Z,30.2513,-88.0778,5.684,6.2,1111122 
DISL,ioos:station:DISL:DISL:1,2011-07-02T03:00:00Z,30.2513,-88.0778,5.643,6.27,1111122 
DISL,ioos:station:DISL:DISL:1,2011-07-02T03:30:00Z,30.2513,-88.0778,5.579,6.03,1111122 
DISL,ioos:station:DISL:DISL:1,2011-07-02T04:00:00Z,30.2513,-88.0778,5.66,5.7,1111122 
DISL,ioos:station:DISL:DISL:1,2011-07-02T04:30:00Z,30.2513,-88.0778,5.617,5.33,1111122 
DISL,ioos:station:DISL:DISL:1,2011-07-02T05:00:00Z,30.2513,-88.0778,5.682,5.52,1111122 
DISL,ioos:station:DISL:DISL:1,2011-07-02T05:30:00Z,30.2513,-88.0778,5.654,5.36,1111122 
DISL,ioos:station:DISL:DISL:1,2011-07-02T06:00:00Z,30.2513,-88.0778,5.717,5.02,1111122 
DISL,ioos:station:DISL:DISL:1,2011-07-02T06:30:00Z,30.2513,-88.0778,5.725,5.09,1111122 
DISL,ioos:station:DISL:DISL:1,2011-07-02T07:00:00Z,30.2513,-88.0778,5.84,4.68,1111122 
DISL,ioos:station:DISL:DISL:1,2011-07-02T07:30:00Z,30.2513,-88.0778,5.855,4.75,1111122 
DISL,ioos:station:DISL:DISL:1,2011-07-02T08:00:00Z,30.2513,-88.0778,5.948,4.72,1111122 
DISL,ioos:station:DISL:DISL:1,2011-07-02T08:30:00Z,30.2513,-88.0778,6.006,4.54,1111122 
DISL,ioos:station:DISL:DISL:1,2011-07-02T09:00:00Z,30.2513,-88.0778,6.099,4.34,1111122 
DISL,ioos:station:DISL:DISL:1,2011-07-02T09:30:00Z,30.2513,-88.0778,6.163,4.68,1111122 
DISL,ioos:station:DISL:DISL:1,2011-07-02T10:00:00Z,30.2513,-88.0778,6.246,4.7,1111122 
DISL,ioos:station:DISL:DISL:1,2011-07-02T10:30:00Z,30.2513,-88.0778,6.298,4.92,1111122 
DISL,ioos:station:DISL:DISL:1,2011-07-02T11:00:00Z,30.2513,-88.0778,6.42,4.58,1111122 
DISL,ioos:station:DISL:DISL:1,2011-07-02T11:30:00Z,30.2513,-88.0778,6.561,4.7,1111122 
DISL,ioos:station:DISL:DISL:1,2011-07-02T12:00:00Z,30.2513,-88.0778,6.657,4.9,1111122 
DISL,ioos:station:DISL:DISL:1,2011-07-02T12:30:00Z,30.2513,-88.0778,6.809,4.71,1111122 
DISL,ioos:station:DISL:DISL:1,2011-07-02T13:00:00Z,30.2513,-88.0778,6.82,4.49,1111122 
DISL,ioos:station:DISL:DISL:1,2011-07-02T13:30:00Z,30.2513,-88.0778,6.883,4.7,1111122 
DISL,ioos:station:DISL:DISL:1,2011-07-02T14:00:00Z,30.2513,-88.0778,7.06,4.56,1111122 
DISL,ioos:station:DISL:DISL:1,2011-07-02T14:30:00Z,30.2513,-88.0778,7.05,4.82,1111122 
DISL,ioos:station:DISL:DISL:1,2011-07-02T15:00:00Z,30.2513,-88.0778,6.996,5.02,1111122 
DISL,ioos:station:DISL:DISL:1,2011-07-02T15:30:00Z,30.2513,-88.0778,7.13,5.24,1111122 
DISL,ioos:station:DISL:DISL:1,2011-07-02T16:00:00Z,30.2513,-88.0778,7.09,5.4,1111122 
DISL,ioos:station:DISL:DISL:1,2011-07-02T16:30:00Z,30.2513,-88.0778,7.16,5.53,1111122 
DISL,ioos:station:DISL:DISL:1,2011-07-02T17:00:00Z,30.2513,-88.0778,7.11,5.71,1111122 
DISL,ioos:station:DISL:DISL:1,2011-07-02T17:30:00Z,30.2513,-88.0778,7.11,5.96,1111122 
DISL,ioos:station:DISL:DISL:1,2011-07-02T18:00:00Z,30.2513,-88.0778,7.12,5.8,1111122 
DISL,ioos:station:DISL:DISL:1,2011-07-02T18:30:00Z,30.2513,-88.0778,7.04,5.84,1111122 
DISL,ioos:station:DISL:DISL:1,2011-07-02T19:00:00Z,30.2513,-88.0778,6.936,6.58,1111122 
DISL,ioos:station:DISL:DISL:1,2011-07-02T19:30:00Z,30.2513,-88.0778,6.854,6.35,1111122 
DISL,ioos:station:DISL:DISL:1,2011-07-02T20:00:00Z,30.2513,-88.0778,6.788,6.25,1111122 
DISL,ioos:station:DISL:DISL:1,2011-07-02T20:30:00Z,30.2513,-88.0778,6.698,6.52,1111122 
DISL,ioos:station:DISL:DISL:1,2011-07-02T21:00:00Z,30.2513,-88.0778,6.672,6.63,1111122 
DISL,ioos:station:DISL:DISL:1,2011-07-02T21:30:00Z,30.2513,-88.0778,6.565,6.64,1111122 
DISL,ioos:station:DISL:DISL:1,2011-07-02T22:00:00Z,30.2513,-88.0778,6.398,6.26,1111122 
DISL,ioos:station:DISL:DISL:1,2011-07-02T22:30:00Z,30.2513,-88.0778,6.228,7.43,1111122 
DISL,ioos:station:DISL:DISL:1,2011-07-02T23:00:00Z,30.2513,-88.0778,6.208,7.01,1111122 
DISL,ioos:station:DISL:DISL:1,2011-07-02T23:30:00Z,30.2513,-88.0778,6.168,6.87,1111122 
DISL,ioos:station:DISL:DISL:1,2011-07-03T00:00:00Z,30.2513,-88.0778,5.953,6.57,1111122 
DISL,ioos:station:DISL:DISL:1,2011-07-03T00:30:00Z,30.2513,-88.0778,5.912,6.53,1111122 
DISL,ioos:station:DISL:DISL:1,2011-07-03T01:00:00Z,30.2513,-88.0778,5.815,6.37,1111122 
DISL,ioos:station:DISL:DISL:1,2011-07-03T01:30:00Z,30.2513,-88.0778,5.779,6.24,1111122 
DISL,ioos:station:DISL:DISL:1,2011-07-03T02:00:00Z,30.2513,-88.0778,5.689,6.11,1111122 
DISL,ioos:station:DISL:DISL:1,2011-07-03T02:30:00Z,30.2513,-88.0778,5.707,5.98,1111122 
DISL,ioos:station:DISL:DISL:1,2011-07-03T03:00:00Z,30.2513,-88.0778,5.671,5.52,1111122 
DISL,ioos:station:DISL:DISL:1,2011-07-03T03:30:00Z,30.2513,-88.0778,5.628,4.97,1111122 
DISL,ioos:station:DISL:DISL:1,2011-07-03T04:00:00Z,30.2513,-88.0778,5.612,5.03,1111122 
DISL,ioos:station:DISL:DISL:1,2011-07-03T04:30:00Z,30.2513,-88.0778,5.663,5.09,1111122 
DISL,ioos:station:DISL:DISL:1,2011-07-03T05:00:00Z,30.2513,-88.0778,5.61,4.7,1111122 
DISL,ioos:station:DISL:DISL:1,2011-07-03T05:30:00Z,30.2513,-88.0778,5.743,4.58,1111122 
DISL,ioos:station:DISL:DISL:1,2011-07-03T06:00:00Z,30.2513,-88.0778,5.703,4.28,1111122 
DISL,ioos:station:DISL:DISL:1,2011-07-03T06:30:00Z,30.2513,-88.0778,5.721,4.24,1111122 
DISL,ioos:station:DISL:DISL:1,2011-07-03T07:00:00Z,30.2513,-88.0778,5.809,4.69,1111122 
DISL,ioos:station:DISL:DISL:1,2011-07-03T07:30:00Z,30.2513,-88.0778,5.885,3.85,1111122 
DISL,ioos:station:DISL:DISL:1,2011-07-03T08:00:00Z,30.2513,-88.0778,5.899,4.05,1111122 
DISL,ioos:station:DISL:DISL:1,2011-07-03T08:30:00Z,30.2513,-88.0778,5.97,4.26,1111122 
DISL,ioos:station:DISL:DISL:1,2011-07-03T09:00:00Z,30.2513,-88.0778,6.033,4.21,1111122 
DISL,ioos:station:DISL:DISL:1,2011-07-03T09:30:00Z,30.2513,-88.0778,6.138,4.2,1111122 
DISL,ioos:station:DISL:DISL:1,2011-07-03T10:00:00Z,30.2513,-88.0778,6.228,4.21,1111122 
DISL,ioos:station:DISL:DISL:1,2011-07-03T10:30:00Z,30.2513,-88.0778,6.342,4.11,1111122 
DISL,ioos:station:DISL:DISL:1,2011-07-03T11:00:00Z,30.2513,-88.0778,6.404,4.56,1111122 
DISL,ioos:station:DISL:DISL:1,2011-07-03T11:30:00Z,30.2513,-88.0778,6.48,4.47,1111122 
DISL,ioos:station:DISL:DISL:1,2011-07-03T12:00:00Z,30.2513,-88.0778,6.725,4.39,1111122 
DISL,ioos:station:DISL:DISL:1,2011-07-03T12:30:00Z,30.2513,-88.0778,6.7,4.08,1111122 
DISL,ioos:station:DISL:DISL:1,2011-07-03T13:00:00Z,30.2513,-88.0778,6.782,3.65,1111122 
DISL,ioos:station:DISL:DISL:1,2011-07-03T13:30:00Z,30.2513,-88.0778,6.895,3.51,1111122 
DISL,ioos:station:DISL:DISL:1,2011-07-03T14:00:00Z,30.2513,-88.0778,6.849,3.54,1111122 
DISL,ioos:station:DISL:DISL:1,2011-07-03T14:30:00Z,30.2513,-88.0778,7.05,3.26,1111122 
DISL,ioos:station:DISL:DISL:1,2011-07-03T15:00:00Z,30.2513,-88.0778,7.11,3.4,1111122 
DISL,ioos:station:DISL:DISL:1,2011-07-03T15:30:00Z,30.2513,-88.0778,7.02,3.6,1111122 
DISL,ioos:station:DISL:DISL:1,2011-07-03T16:00:00Z,30.2513,-88.0778,7.21,4.62,1111122 
DISL,ioos:station:DISL:DISL:1,2011-07-03T16:30:00Z,30.2513,-88.0778,7.27,4.8,1111122 
DISL,ioos:station:DISL:DISL:1,2011-07-03T17:00:00Z,30.2513,-88.0778,7.23,5.15,1111122 
DISL,ioos:station:DISL:DISL:1,2011-07-03T17:30:00Z,30.2513,-88.0778,7.3,5.32,1111122 
DISL,ioos:station:DISL:DISL:1,2011-07-03T18:00:00Z,30.2513,-88.0778,7.3,5.12,1111122 
DISL,ioos:station:DISL:DISL:1,2011-07-03T18:30:00Z,30.2513,-88.0778,7.32,4.79,1111122 
DISL,ioos:station:DISL:DISL:1,2011-07-03T19:00:00Z,30.2513,-88.0778,7.28,5.48,1111122 
DISL,ioos:station:DISL:DISL:1,2011-07-03T19:30:00Z,30.2513,-88.0778,7.16,6.3,1111122 
DISL,ioos:station:DISL:DISL:1,2011-07-03T20:00:00Z,30.2513,-88.0778,6.709,6.13,1111122 
DISL,ioos:station:DISL:DISL:1,2011-07-03T20:30:00Z,30.2513,-88.0778,6.979,6.89,1111122 
DISL,ioos:station:DISL:DISL:1,2011-07-03T21:00:00Z,30.2513,-88.0778,6.959,6.54,1111122 
DISL,ioos:station:DISL:DISL:1,2011-07-03T21:30:00Z,30.2513,-88.0778,6.706,7.06,1111122 
DISL,ioos:station:DISL:DISL:1,2011-07-03T22:00:00Z,30.2513,-88.0778,6.635,6.5,1111122 
DISL,ioos:station:DISL:DISL:1,2011-07-03T22:30:00Z,30.2513,-88.0778,6.443,7.48,1111122 
DISL,ioos:station:DISL:DISL:1,2011-07-03T23:00:00Z,30.2513,-88.0778,6.366,7.55,1111122 
DISL,ioos:station:DISL:DISL:1,2011-07-03T23:30:00Z,30.2513,-88.0778,6.316,7.07,1111122 
DISL,ioos:station:DISL:DISL:1,2011-07-04T00:00:00Z,30.2513,-88.0778,6.18,6.49,1111122 
DISL,ioos:station:DISL:DISL:1,2011-07-04T00:30:00Z,30.2513,-88.0778,6.19,6.14,1111122 
DISL,ioos:station:DISL:DISL:1,2011-07-04T01:00:00Z,30.2513,-88.0778,6.215,5.84,1111122 
DISL,ioos:station:DISL:DISL:1,2011-07-04T01:30:00Z,30.2513,-88.0778,6.093,5.7,1111122 
DISL,ioos:station:DISL:DISL:1,2011-07-04T02:00:00Z,30.2513,-88.0778,6.082,5.72,1111122 
DISL,ioos:station:DISL:DISL:1,2011-07-04T02:30:00Z,30.2513,-88.0778,6.044,5.68,1111122 
DISL,ioos:station:DISL:DISL:1,2011-07-04T03:00:00Z,30.2513,-88.0778,5.935,5.68,1111122 
DISL,ioos:station:DISL:DISL:1,2011-07-04T03:30:00Z,30.2513,-88.0778,5.931,5.51,1111122 
DISL,ioos:station:DISL:DISL:1,2011-07-04T04:00:00Z,30.2513,-88.0778,5.96,5.57,1111122 
DISL,ioos:station:DISL:DISL:1,2011-07-04T04:30:00Z,30.2513,-88.0778,5.853,5.35,1111122 
DISL,ioos:station:DISL:DISL:1,2011-07-04T05:00:00Z,30.2513,-88.0778,5.945,5.48,1111122 
DISL,ioos:station:DISL:DISL:1,2011-07-04T05:30:00Z,30.2513,-88.0778,5.912,5.39,1111122 
DISL,ioos:station:DISL:DISL:1,2011-07-04T06:00:00Z,30.2513,-88.0778,5.981,5.5,1111122 
DISL,ioos:station:DISL:DISL:1,2011-07-04T06:30:00Z,30.2513,-88.0778,5.967,4.51,1111122 
DISL,ioos:station:DISL:DISL:1,2011-07-04T07:00:00Z,30.2513,-88.0778,6.011,4.56,1111122 
DISL,ioos:station:DISL:DISL:1,2011-07-04T07:30:00Z,30.2513,-88.0778,6.042,4.03,1111122 
DISL,ioos:station:DISL:DISL:1,2011-07-04T08:00:00Z,30.2513,-88.0778,6.076,4.55,1111122 
DISL,ioos:station:DISL:DISL:1,2011-07-04T08:30:00Z,30.2513,-88.0778,6.141,4.46,1111122 
DISL,ioos:station:DISL:DISL:1,2011-07-04T09:00:00Z,30.2513,-88.0778,6.189,3.94,1111122 
DISL,ioos:station:DISL:DISL:1,2011-07-04T09:30:00Z,30.2513,-88.0778,6.249,4.9,1111122 
DISL,ioos:station:DISL:DISL:1,2011-07-04T10:00:00Z,30.2513,-88.0778,6.326,4.59,1111122 
DISL,ioos:station:DISL:DISL:1,2011-07-04T10:30:00Z,30.2513,-88.0778,6.346,4.58,1111122 
DISL,ioos:station:DISL:DISL:1,2011-07-04T11:00:00Z,30.2513,-88.0778,6.513,4.45,1111122 
DISL,ioos:station:DISL:DISL:1,2011-07-04T11:30:00Z,30.2513,-88.0778,6.525,4.61,1111122 
DISL,ioos:station:DISL:DISL:1,2011-07-04T12:00:00Z,30.2513,-88.0778,6.686,4.6,1111122 
DISL,ioos:station:DISL:DISL:1,2011-07-04T12:30:00Z,30.2513,-88.0778,6.74,3.71,1111122 
DISL,ioos:station:DISL:DISL:1,2011-07-04T13:00:00Z,30.2513,-88.0778,6.815,3.9,1111122 
DISL,ioos:station:DISL:DISL:1,2011-07-04T13:30:00Z,30.2513,-88.0778,6.876,3.83,1111122 
DISL,ioos:station:DISL:DISL:1,2011-07-04T14:00:00Z,30.2513,-88.0778,6.997,3.72,1111122 
DISL,ioos:station:DISL:DISL:1,2011-07-04T14:30:00Z,30.2513,-88.0778,7.03,3.61,1111122 
DISL,ioos:station:DISL:DISL:1,2011-07-04T15:00:00Z,30.2513,-88.0778,7.12,4.15,1111122 
DISL,ioos:station:DISL:DISL:1,2011-07-04T15:30:00Z,30.2513,-88.0778,7.08,4.37,1111122 
DISL,ioos:station:DISL:DISL:1,2011-07-04T16:00:00Z,30.2513,-88.0778,6.934,4.04,1111122 
DISL,ioos:station:DISL:DISL:1,2011-07-04T16:30:00Z,30.2513,-88.0778,7.21,5.02,1111122 
DISL,ioos:station:DISL:DISL:1,2011-07-04T17:00:00Z,30.2513,-88.0778,7.21,4.12,1111122 
DISL,ioos:station:DISL:DISL:1,2011-07-04T17:30:00Z,30.2513,-88.0778,7.21,3.82,1111122 
DISL,ioos:station:DISL:DISL:1,2011-07-04T18:00:00Z,30.2513,-88.0778,7.25,4.98,1111122 
DISL,ioos:station:DISL:DISL:1,2011-07-04T18:30:00Z,30.2513,-88.0778,7.17,4.88,1111122 
DISL,ioos:station:DISL:DISL:1,2011-07-04T19:00:00Z,30.2513,-88.0778,7.16,5.37,1111122 
DISL,ioos:station:DISL:DISL:1,2011-07-04T19:30:00Z,30.2513,-88.0778,7.16,5.21,1111122 
DISL,ioos:station:DISL:DISL:1,2011-07-04T20:00:00Z,30.2513,-88.0778,7.03,6.14,1111122 
DISL,ioos:station:DISL:DISL:1,2011-07-04T20:30:00Z,30.2513,-88.0778,6.956,6.13,1111122 
DISL,ioos:station:DISL:DISL:1,2011-07-04T21:00:00Z,30.2513,-88.0778,6.922,6.34,1111122 
DISL,ioos:station:DISL:DISL:1,2011-07-04T21:30:00Z,30.2513,-88.0778,6.831,6.04,1111122 
DISL,ioos:station:DISL:DISL:1,2011-07-04T22:00:00Z,30.2513,-88.0778,6.721,6.02,1111122 
DISL,ioos:station:DISL:DISL:1,2011-07-04T22:30:00Z,30.2513,-88.0778,6.769,7.95,1111122 
DISL,ioos:station:DISL:DISL:1,2011-07-04T23:00:00Z,30.2513,-88.0778,6.564,8.03,1111122 
DISL,ioos:station:DISL:DISL:1,2011-07-04T23:30:00Z,30.2513,-88.0778,6.388,8.19,1111122 
DISL,ioos:station:DISL:DISL:1,2011-07-05T00:00:00Z,30.2513,-88.0778,6.412,7.97,1111122 
DISL,ioos:station:DISL:DISL:1,2011-07-05T00:30:00Z,30.2513,-88.0778,6.286,7.55,1111122 
DISL,ioos:station:DISL:DISL:1,2011-07-05T01:00:00Z,30.2513,-88.0778,6.267,7.57,1111122 
DISL,ioos:station:DISL:DISL:1,2011-07-05T01:30:00Z,30.2513,-88.0778,6.316,7.14,1111122 
DISL,ioos:station:DISL:DISL:1,2011-07-05T02:00:00Z,30.2513,-88.0778,6.222,6.69,1111122 
DISL,ioos:station:DISL:DISL:1,2011-07-05T02:30:00Z,30.2513,-88.0778,6.112,6.57,1111122 
DISL,ioos:station:DISL:DISL:1,2011-07-05T03:00:00Z,30.2513,-88.0778,6.117,5.43,1111122 
DISL,ioos:station:DISL:DISL:1,2011-07-05T03:30:00Z,30.2513,-88.0778,6.067,5.63,1111122 
DISL,ioos:station:DISL:DISL:1,2011-07-05T04:00:00Z,30.2513,-88.0778,6.0,6.09,1111122 
DISL,ioos:station:DISL:DISL:1,2011-07-05T04:30:00Z,30.2513,-88.0778,6.054,5.77,1111122 
DISL,ioos:station:DISL:DISL:1,2011-07-05T05:00:00Z,30.2513,-88.0778,6.048,5.3,1111122 
DISL,ioos:station:DISL:DISL:1,2011-07-05T05:30:00Z,30.2513,-88.0778,6.082,4.73,1111122 
DISL,ioos:station:DISL:DISL:1,2011-07-05T06:00:00Z,30.2513,-88.0778,6.101,4.16,1111122 
DISL,ioos:station:DISL:DISL:1,2011-07-05T06:30:00Z,30.2513,-88.0778,6.091,4.31,1111122 
DISL,ioos:station:DISL:DISL:1,2011-07-05T07:00:00Z,30.2513,-88.0778,6.181,4.66,1111122 
DISL,ioos:station:DISL:DISL:1,2011-07-05T07:30:00Z,30.2513,-88.0778,6.205,4.78,1111122 
DISL,ioos:station:DISL:DISL:1,2011-07-05T08:00:00Z,30.2513,-88.0778,6.256,4.31,1111122 
DISL,ioos:station:DISL:DISL:1,2011-07-05T08:30:00Z,30.2513,-88.0778,6.332,4.3,1111122 
DISL,ioos:station:DISL:DISL:1,2011-07-05T09:00:00Z,30.2513,-88.0778,6.355,4.64,1111122 
DISL,ioos:station:DISL:DISL:1,2011-07-05T09:30:00Z,30.2513,-88.0778,6.346,4.66,1111122 
DISL,ioos:station:DISL:DISL:1,2011-07-05T10:00:00Z,30.2513,-88.0778,6.43,4.91,1111122 
DISL,ioos:station:DISL:DISL:1,2011-07-05T10:30:00Z,30.2513,-88.0778,6.489,4.38,1111122 
DISL,ioos:station:DISL:DISL:1,2011-07-05T11:00:00Z,30.2513,-88.0778,6.484,4.66,1111122 
DISL,ioos:station:DISL:DISL:1,2011-07-05T11:30:00Z,30.2513,-88.0778,6.575,4.56,1111122 
DISL,ioos:station:DISL:DISL:1,2011-07-05T12:00:00Z,30.2513,-88.0778,6.667,4.55,1111122 
DISL,ioos:station:DISL:DISL:1,2011-07-05T12:30:00Z,30.2513,-88.0778,6.69,4.24,1111122 
DISL,ioos:station:DISL:DISL:1,2011-07-05T13:00:00Z,30.2513,-88.0778,6.744,3.76,1111122 
DISL,ioos:station:DISL:DISL:1,2011-07-05T13:30:00Z,30.2513,-88.0778,6.809,3.64,1111122 
DISL,ioos:station:DISL:DISL:1,2011-07-05T14:00:00Z,30.2513,-88.0778,6.767,3.78,1111122 
DISL,ioos:station:DISL:DISL:1,2011-07-05T14:30:00Z,30.2513,-88.0778,6.952,3.56,1111122 
DISL,ioos:station:DISL:DISL:1,2011-07-05T15:00:00Z,30.2513,-88.0778,6.926,3.77,1111122 
DISL,ioos:station:DISL:DISL:1,2011-07-05T15:30:00Z,30.2513,-88.0778,6.944,3.89,1111122 
DISL,ioos:station:DISL:DISL:1,2011-07-05T16:00:00Z,30.2513,-88.0778,7.01,4.32,1111122 
DISL,ioos:station:DISL:DISL:1,2011-07-05T16:30:00Z,30.2513,-88.0778,7.03,4.15,1111122 
DISL,ioos:station:DISL:DISL:1,2011-07-05T17:00:00Z,30.2513,-88.0778,7.03,3.94,1111122 
DISL,ioos:station:DISL:DISL:1,2011-07-05T17:30:00Z,30.2513,-88.0778,7.07,3.79,1111122 
DISL,ioos:station:DISL:DISL:1,2011-07-05T18:00:00Z,30.2513,-88.0778,7.1,4.43,1111122 
DISL,ioos:station:DISL:DISL:1,2011-07-05T18:30:00Z,30.2513,-88.0778,7.08,4.33,1111122 
DISL,ioos:station:DISL:DISL:1,2011-07-05T19:00:00Z,30.2513,-88.0778,7.1,4.09,1111122 
DISL,ioos:station:DISL:DISL:1,2011-07-05T19:30:00Z,30.2513,-88.0778,7.13,4.77,1111122 
DISL,ioos:station:DISL:DISL:1,2011-07-05T20:00:00Z,30.2513,-88.0778,7.1,4.99,1111122 
DISL,ioos:station:DISL:DISL:1,2011-07-05T20:30:00Z,30.2513,-88.0778,7.07,5.46,1111122 
DISL,ioos:station:DISL:DISL:1,2011-07-05T21:00:00Z,30.2513,-88.0778,7.16,5.44,1111122 
DISL,ioos:station:DISL:DISL:1,2011-07-05T21:30:00Z,30.2513,-88.0778,7.01,5.89,1111122 
DISL,ioos:station:DISL:DISL:1,2011-07-05T22:00:00Z,30.2513,-88.0778,6.837,6.11,1111122 
DISL,ioos:station:DISL:DISL:1,2011-07-05T22:30:00Z,30.2513,-88.0778,6.818,6.25,1111122 
DISL,ioos:station:DISL:DISL:1,2011-07-05T23:00:00Z,30.2513,-88.0778,6.823,6.43,1111122 
DISL,ioos:station:DISL:DISL:1,2011-07-05T23:30:00Z,30.2513,-88.0778,6.698,6.83,1111122 
DISL,ioos:station:DISL:DISL:1,2011-07-06T00:00:00Z,30.2513,-88.0778,6.632,6.92,1111122 
DISL,ioos:station:DISL:DISL:1,2011-07-06T00:30:00Z,30.2513,-88.0778,6.874,6.78,1111122 
DISL,ioos:station:DISL:DISL:1,2011-07-06T01:00:00Z,30.2513,-88.0778,6.711,7.3,1111122 
DISL,ioos:station:DISL:DISL:1,2011-07-06T01:30:00Z,30.2513,-88.0778,6.541,7.1,1111122 
DISL,ioos:station:DISL:DISL:1,2011-07-06T02:00:00Z,30.2513,-88.0778,6.474,6.93,1111122 
DISL,ioos:station:DISL:DISL:1,2011-07-06T02:30:00Z,30.2513,-88.0778,6.417,6.56,1111122 
DISL,ioos:station:DISL:DISL:1,2011-07-06T03:00:00Z,30.2513,-88.0778,6.319,6.21,1111122 
DISL,ioos:station:DISL:DISL:1,2011-07-06T03:30:00Z,30.2513,-88.0778,6.309,5.97,1111122 
DISL,ioos:station:DISL:DISL:1,2011-07-06T04:00:00Z,30.2513,-88.0778,6.325,5.75,1111122 
DISL,ioos:station:DISL:DISL:1,2011-07-06T04:30:00Z,30.2513,-88.0778,6.285,5.79,1111122 
DISL,ioos:station:DISL:DISL:1,2011-07-06T05:00:00Z,30.2513,-88.0778,6.351,5.7,1111122 
DISL,ioos:station:DISL:DISL:1,2011-07-06T05:30:00Z,30.2513,-88.0778,6.416,5.88,1111122 
DISL,ioos:station:DISL:DISL:1,2011-07-06T06:00:00Z,30.2513,-88.0778,6.467,4.8,1111122 
DISL,ioos:station:DISL:DISL:1,2011-07-06T06:30:00Z,30.2513,-88.0778,6.468,4.67,1111122 
DISL,ioos:station:DISL:DISL:1,2011-07-06T07:00:00Z,30.2513,-88.0778,6.48,5.15,1111122 
DISL,ioos:station:DISL:DISL:1,2011-07-06T07:30:00Z,30.2513,-88.0778,6.475,5.29,1111122 
DISL,ioos:station:DISL:DISL:1,2011-07-06T08:00:00Z,30.2513,-88.0778,6.522,4.96,1111122 
DISL,ioos:station:DISL:DISL:1,2011-07-06T08:30:00Z,30.2513,-88.0778,6.571,5.42,1111122 
DISL,ioos:station:DISL:DISL:1,2011-07-06T09:00:00Z,30.2513,-88.0778,6.584,4.95,1111122 
DISL,ioos:station:DISL:DISL:1,2011-07-06T09:30:00Z,30.2513,-88.0778,6.638,4.12,1111122 
DISL,ioos:station:DISL:DISL:1,2011-07-06T10:00:00Z,30.2513,-88.0778,6.701,4.24,1111122 
DISL,ioos:station:DISL:DISL:1,2011-07-06T10:30:00Z,30.2513,-88.0778,6.708,4.9,1111122 
DISL,ioos:station:DISL:DISL:1,2011-07-06T11:00:00Z,30.2513,-88.0778,6.63,5.01,1111122 
DISL,ioos:station:DISL:DISL:1,2011-07-06T11:30:00Z,30.2513,-88.0778,6.746,4.53,1111122 
DISL,ioos:station:DISL:DISL:1,2011-07-06T12:00:00Z,30.2513,-88.0778,6.768,4.66,1111122 
DISL,ioos:station:DISL:DISL:1,2011-07-06T12:30:00Z,30.2513,-88.0778,6.773,5.18,1111122 
DISL,ioos:station:DISL:DISL:1,2011-07-06T13:00:00Z,30.2513,-88.0778,6.819,5.69,1111122 
DISL,ioos:station:DISL:DISL:1,2011-07-06T13:30:00Z,30.2513,-88.0778,6.845,5.65,1111122 
DISL,ioos:station:DISL:DISL:1,2011-07-06T14:00:00Z,30.2513,-88.0778,6.82,5.84,1111122 
DISL,ioos:station:DISL:DISL:1,2011-07-06T14:30:00Z,30.2513,-88.0778,6.788,5.31,1111122 
DISL,ioos:station:DISL:DISL:1,2011-07-06T15:00:00Z,30.2513,-88.0778,6.879,5.72,1111122 
DISL,ioos:station:DISL:DISL:1,2011-07-06T15:30:00Z,30.2513,-88.0778,6.829,4.77,1111122 